Skip Page Navigation
NASA JPL Caltech
NASA Logo - Jet Propulsion Laboratory + View the NASA Portal
+ Center for Near-Earth Object Studies
JPL Home Earth Solar System Stars & Galaxies Technology
JPL Solar System Dynamics
BODIES ORBITS EPHEMERIDES TOOLS PHYSICAL DATA DISCOVERY FAQ SITE MAP
JPL Small-Body Database Browser
Search: [ help ]  
43360 (2000 UU49)
Classification: Main-belt Asteroid          SPK-ID: 2043360
Ephemeris | Orbit Diagram | Orbital Elements | Mission Design | Physical Parameters | Discovery Circumstances | Close-Approach Data ]

[ show orbit diagram ]
Orbital Elements at Epoch 2459200.5 (2020-Dec-17.0) TDB
Reference: JPL 31 (heliocentric ecliptic J2000)
 Element Value Uncertainty (1-sigma)   Units 
e .126576599411718 3.9696e-08  
a 2.25259514084027 6.5777e-09 au
q 1.967469308061349 8.9672e-08 au
i 5.345111086158183 4.8649e-06 deg
node 215.1042090452409 3.0876e-05 deg
peri 28.53054306687563 3.4389e-05 deg
M 151.3585093546667 1.483e-05 deg
tp 2458681.308609118878
(2019-Jul-16.80860912)
5.0705e-05 TDB
period 1234.875406173793
3.38
5.4088e-06
1.481e-08
d
yr
n .2915273866498355 1.2769e-09 deg/d
Q 2.537720973619192 7.4102e-09 au
  Orbit Determination Parameters
   # obs. used (total)      1833  
   data-arc span      8914 days (24.41 yr)  
   first obs. used      1996-10-10  
   last obs. used      2021-03-07  
   planetary ephem.      DE441  
   SB-pert. ephem.      SB441-N16  
   condition code      0  
   norm. resid. RMS      .46982  
   source      ORB  
   producer      Otto Matic  
   solution date      2021-Apr-13 09:19:09  

Additional Information
 Earth MOID = .955193 au 
 Jupiter MOID = 2.46917 au 
 T_jup = 3.610 
[ show covariance matrix ]

Ephemeris | Orbit Diagram | Orbital Elements | Mission Design | Physical Parameters | Discovery Circumstances | Close-Approach Data ]

Physical Parameter Table
Parameter Symbol Value Units Sigma Reference Notes
absolute magnitude H 14.96   n/a E2021B10  

43360 (2000 UU49)          Discovered 2000-Oct-24 by LINEAR at Socorro
Reference: 20020624/Numbers.arcLast Updated: 2004-04-19

[ show close-approach data ]
Alternate Designations
 2000 UU49 = 1999 NF46 
Ephemeris | Orbit Diagram | Orbital Elements | Mission Design | Physical Parameters | Discovery Circumstances | Close-Approach Data ]
ABOUT SSD CREDITS/AWARDS PRIVACY/COPYRIGHT GLOSSARY LINKS
FirstGov 2021-Jun-15 11:05 UT
(server date/time)  
NASA Home Page
Site Manager:   Ryan S. Park
Webmaster  Alan B. Chamberlin